This is the latest recevied weather packets stored in our database for station/object KE2HEH. If no packets are shown the sender has not sent any weather packets the latest 10 day(s).
| Time | Temp. | Humidity | Pressure | Rain* | Wind** | Luminosity | Snow |
|---|---|---|---|---|---|---|---|
| 1778251796 | 12.22° C | 75% | 1013.8 hPa | 0 mm | - | 660 W/m² | - |
| 1778251494 | 12.22° C | 76% | 1013.6 hPa | 0 mm | - | 663 W/m² | - |
| 1778251191 | 12.22° C | 76% | 1013.9 hPa | 0 mm | - | 656 W/m² | - |
| 1778250889 | 11.67° C | 77% | 1013.8 hPa | 0 mm | - | 661 W/m² | - |
| 1778250585 | 11.67° C | 79% | 1013.9 hPa | 0 mm | - | 656 W/m² | - |
| 1778250282 | 11.67° C | 79% | 1013.7 hPa | 0 mm | - | 649 W/m² | - |
| 1778249979 | 11.67° C | 78% | 1013.9 hPa | 0 mm | - | 619 W/m² | - |
| 1778249675 | 11.67° C | 79% | 1013.7 hPa | 0 mm | - | 605 W/m² | - |
| 1778249373 | 11.67° C | 80% | 1013.6 hPa | 0 mm | - | 620 W/m² | - |
| 1778249070 | 11.67° C | 80% | 1013.9 hPa | 0 mm | - | 620 W/m² | - |
| 1778248765 | 11.67° C | 79% | 1013.9 hPa | 0 mm | - | 596 W/m² | - |
| 1778248462 | 11.67° C | 78% | 1013.9 hPa | 0 mm | - | 586 W/m² | - |
| 1778248159 | 11.67° C | 78% | 1013.9 hPa | 0 mm | - | 613 W/m² | - |
| 1778247855 | 11.67° C | 78% | 1013.8 hPa | 0 mm | - | 603 W/m² | - |
| 1778247552 | 11.67° C | 77% | 1013.7 hPa | 0 mm | - | 587 W/m² | - |
| 1778247250 | 11.67° C | 76% | 1013.8 hPa | 0 mm | - | 573 W/m² | - |
| 1778246947 | 11.67° C | 76% | 1013.6 hPa | 0 mm | - | 569 W/m² | - |
| 1778246645 | 12.22° C | 74% | 1013.7 hPa | 0 mm | - | 564 W/m² | - |
| 1778246341 | 12.22° C | 67% | 1013.7 hPa | 0 mm | - | 555 W/m² | - |
| 1778246036 | 11.67° C | 68% | 1013.7 hPa | 0 mm | - | 548 W/m² | - |
| 1778245734 | 12.78° C | 67% | 1013.7 hPa | 0 mm | - | 523 W/m² | - |
| 1778245430 | 12.78° C | 56% | 1013.7 hPa | 0 mm | - | 511 W/m² | - |
| 1778245126 | 12.78° C | 58% | 1013.4 hPa | 0 mm | - | 504 W/m² | - |
| 1778244822 | 12.22° C | 60% | 1013.7 hPa | 0 mm | - | 491 W/m² | - |
| 1778244521 | 12.22° C | 67% | 1013.6 hPa | 0 mm | - | 473 W/m² | - |
* Rain latest hour (hover to see other rain measurements)
** Current wind speed in m/s (hover to see current wind gust speed)